YRZEB LRCV-LROP

Flight info

Callsign YRZEB
Flight time N/A
Altitude 3000
Route PEMOK T899 TOSVI
Aircraft C172/L-SFG/C

Departure

Time 2026-04-12 08:52
Airport Craiova International Airport (LRCV)

Arrival

Time N/A
Airport Bucharest Henri Coandă International Airport (LROP)
Time Latitude Longitude Altitude Speed Heading
2026-04-12 08:47 44.28361 23.79310 205 ft 0 kts 128°
2026-04-12 08:49 44.28360 23.79313 205 ft 2 kts 125°
2026-04-12 08:49 44.28347 23.79347 250 ft 6 kts 110°
2026-04-12 08:49 44.28361 23.79428 250 ft 11 kts 75°
2026-04-12 08:50 44.28381 23.79521 251 ft 7 kts 15°
2026-04-12 08:50 44.28428 23.79463 251 ft 27 kts 309°
2026-04-12 08:50 44.28656 23.79101 250 ft 71 kts 311°
2026-04-12 08:50 44.28994 23.78532 438 ft 75 kts 305°
2026-04-12 08:51 44.29415 23.77931 540 ft 97 kts 343°
2026-04-12 08:51 44.29872 23.78354 780 ft 93 kts 71°
2026-04-12 08:51 44.30110 23.79285 879 ft 102 kts 87°
2026-04-12 08:51 44.30142 23.80303 960 ft 109 kts 89°
2026-04-12 08:52 44.30181 23.81298 1184 ft 100 kts 90°
2026-04-12 08:52 44.30176 23.82319 1280 ft 106 kts 92°
2026-04-12 08:52 44.30215 23.83297 1433 ft 101 kts 87°
2026-04-12 08:52 44.30314 23.84297 1563 ft 105 kts 83°
2026-04-12 08:53 44.30414 23.85323 1690 ft 108 kts 83°
2026-04-12 08:53 44.30489 23.86374 1755 ft 110 kts 88°
2026-04-12 08:53 44.30540 23.87450 1810 ft 112 kts 85°
2026-04-12 08:53 44.30644 23.88541 1823 ft 115 kts 83°
2026-04-12 08:54 44.30788 23.89680 1787 ft 121 kts 82°
2026-04-12 08:54 44.30855 23.90832 1834 ft 119 kts 92°
2026-04-12 08:54 44.30828 23.91985 1842 ft 119 kts 94°
2026-04-12 08:54 44.30823 23.93125 1866 ft 120 kts 88°
2026-04-12 08:55 44.30908 23.94270 1872 ft 119 kts 85°
2026-04-12 08:55 44.31017 23.95429 1891 ft 119 kts 84°
2026-04-12 08:55 44.31134 23.96565 1902 ft 119 kts 84°
2026-04-12 08:55 44.31281 23.97719 1907 ft 119 kts 77°
2026-04-12 08:56 44.31464 23.98838 1896 ft 120 kts 81°
2026-04-12 08:56 44.31593 24.00000 1926 ft 119 kts 83°
2026-04-12 08:56 44.31685 24.01150 1933 ft 120 kts 87°
2026-04-12 08:56 44.31731 24.02314 1963 ft 119 kts 90°
2026-04-12 08:57 44.31713 24.03465 1991 ft 119 kts 90°
2026-04-12 08:57 44.32206 24.04328 1903 ft 127 kts 17°
2026-04-12 08:57 44.33052 24.04581 1914 ft 124 kts 16°
2026-04-12 08:57 44.33883 24.04871 1880 ft 124 kts 14°
2026-04-12 08:58 44.34725 24.05168 1897 ft 123 kts 16°
2026-04-12 08:58 44.35542 24.05497 1902 ft 123 kts 17°
2026-04-12 08:58 44.36358 24.05903 1888 ft 124 kts 24°
2026-04-12 08:58 44.37104 24.06462 1893 ft 123 kts 39°
2026-04-12 08:59 44.37780 24.07202 1888 ft 121 kts 42°
2026-04-12 08:59 44.38326 24.08105 1817 ft 125 kts 63°
2026-04-12 08:59 44.38741 24.09147 1853 ft 120 kts 54°
2026-04-12 08:59 44.39301 24.10039 1810 ft 124 kts 48°
2026-04-12 09:00 44.39943 24.10819 1839 ft 121 kts 41°
2026-04-12 09:00 44.40676 24.11440 1735 ft 126 kts 26°
2026-04-12 09:00 44.41418 24.12073 1755 ft 123 kts 38°
2026-04-12 09:00 44.42088 24.12811 1732 ft 123 kts 42°
2026-04-12 09:01 44.42719 24.13585 1692 ft 121 kts 39°
2026-04-12 09:01 44.43419 24.14274 1656 ft 122 kts 37°
2026-04-12 09:01 44.44093 24.15018 1643 ft 122 kts 42°
2026-04-12 09:01 44.44748 24.15755 1656 ft 124 kts 32°
2026-04-12 09:02 44.45487 24.16396 1669 ft 122 kts 36°
2026-04-12 09:02 44.46180 24.17094 1697 ft 122 kts 38°
2026-04-12 09:02 44.46847 24.17852 1673 ft 123 kts 41°
2026-04-12 09:02 44.47500 24.18627 1649 ft 126 kts 41°
2026-04-12 09:03 44.48153 24.19386 1677 ft 121 kts 41°
2026-04-12 09:03 44.48835 24.20133 1601 ft 125 kts 22°
2026-04-12 09:03 44.49667 24.20138 1613 ft 119 kts 356°
2026-04-12 09:03 44.50516 24.20072 1507 ft 122 kts 360°
2026-04-12 09:04 44.51346 24.20064 1509 ft 119 kts
2026-04-12 09:04 44.52174 24.20076 1499 ft 118 kts
2026-04-12 09:04 44.52989 24.20102 1490 ft 121 kts
2026-04-12 09:04 44.53819 24.20200 1591 ft 117 kts
2026-04-12 09:05 44.54629 24.20378 1570 ft 122 kts
2026-04-12 09:05 44.55464 24.20605 1597 ft 120 kts 14°
2026-04-12 09:05 44.56294 24.20916 1533 ft 125 kts 17°
2026-04-12 09:05 44.57130 24.21280 1494 ft 126 kts 20°
2026-04-12 09:06 44.57940 24.21693 1527 ft 123 kts 22°
2026-04-12 09:06 44.58749 24.22145 1475 ft 127 kts 24°
2026-04-12 09:06 44.59559 24.22629 1504 ft 125 kts 21°
2026-04-12 09:06 44.60408 24.22781 1572 ft 119 kts 18°
2026-04-12 09:07 44.61003 24.23528 969 ft 146 kts 48°
2026-04-12 09:07 44.61324 24.23943 1992 ft 38 kts 19°
2026-04-12 09:07 44.62129 24.24291 964 ft 125 kts 21°
2026-04-12 09:07 44.62362 24.24375 1503 ft 31 kts
2026-04-12 09:08 44.63220 24.24701 842 ft 132 kts 19°
2026-04-12 09:08 44.64138 24.24857 631 ft 130 kts
2026-04-12 09:08 44.64983 24.24670 553 ft 126 kts 354°
2026-04-12 09:08 44.65726 24.24721 1001 ft 93 kts 360°
2026-04-12 09:09 44.66365 24.24691 1238 ft 96 kts 356°
2026-04-12 09:09 44.67055 24.24950 1273 ft 114 kts 31°
2026-04-12 09:09 44.67792 24.25547 1244 ft 125 kts 31°
2026-04-12 09:09 44.68600 24.25927 1250 ft 125 kts 358°
2026-04-12 09:10 44.69478 24.25866 1234 ft 128 kts 359°
2026-04-12 09:10 44.70364 24.25795 1241 ft 128 kts 356°
2026-04-12 09:10 44.71256 24.25679 1221 ft 128 kts 353°
2026-04-12 09:10 44.72131 24.25497 1225 ft 128 kts 351°
2026-04-12 09:11 44.73021 24.25324 1237 ft 127 kts 353°
2026-04-12 09:11 44.73891 24.25174 1162 ft 130 kts 354°
2026-04-12 09:11 44.74790 24.25037 1155 ft 126 kts 353°
2026-04-12 09:11 44.75663 24.24883 1096 ft 126 kts 351°
2026-04-12 09:12 44.76547 24.24721 1022 ft 125 kts 353°
2026-04-12 09:12 44.77329 24.24582 1239 ft 109 kts 352°
2026-04-12 09:12 44.78059 24.24443 1387 ft 104 kts 352°
2026-04-12 09:12 44.78744 24.24273 1633 ft 90 kts 346°
2026-04-12 09:13 44.79332 24.24104 1875 ft 71 kts 348°
2026-04-12 09:13 44.79838 24.24104 1839 ft 88 kts 359°
2026-04-12 09:13 44.80370 24.23957 1994 ft 90 kts 335°
2026-04-12 09:13 44.81019 24.23560 1939 ft 105 kts 341°
2026-04-12 09:14 44.81753 24.23244 1903 ft 119 kts 346°
2026-04-12 09:14 44.82591 24.23022 1844 ft 126 kts 352°
2026-04-12 09:14 44.83467 24.22889 1809 ft 127 kts
2026-04-12 09:14 44.84351 24.23101 1721 ft 130 kts
2026-04-12 09:15 44.85223 24.23251 1795 ft 124 kts
2026-04-12 09:15 44.86088 24.23337 1815 ft 125 kts
2026-04-12 09:15 44.86960 24.23399 1802 ft 124 kts
2026-04-12 09:15 44.87842 24.23463 1759 ft 127 kts
2026-04-12 09:16 44.88726 24.23528 1829 ft 126 kts
2026-04-12 09:16 44.89620 24.23626 1796 ft 131 kts
2026-04-12 09:16 44.90526 24.23729 1804 ft 129 kts
2026-04-12 09:16 44.91425 24.23883 1749 ft 129 kts
2026-04-12 09:17 44.92325 24.24004 1709 ft 131 kts
2026-04-12 09:17 44.93206 24.24123 1793 ft 125 kts
2026-04-12 09:17 44.94076 24.24200 1809 ft 127 kts
2026-04-12 09:17 44.94959 24.24276 1822 ft 128 kts
2026-04-12 09:18 44.95842 24.24394 1844 ft 127 kts
2026-04-12 09:18 44.96727 24.24488 1849 ft 127 kts
2026-04-12 09:18 44.97616 24.24575 1810 ft 128 kts
2026-04-12 09:18 44.98498 24.24657 1782 ft 127 kts
2026-04-12 09:19 44.99383 24.24770 1765 ft 127 kts
2026-04-12 09:19 45.00255 24.24877 1823 ft 125 kts
2026-04-12 09:19 45.01133 24.24961 1809 ft 127 kts
2026-04-12 09:20 45.02765 24.25179 2162 ft 115 kts
2026-04-12 09:20 45.03605 24.25236 2173 ft 123 kts
2026-04-12 09:20 45.05320 24.25398 2188 ft 125 kts
2026-04-12 09:21 45.06181 24.25494 2187 ft 123 kts
2026-04-12 09:21 45.07047 24.25589 2198 ft 124 kts
2026-04-12 09:21 45.07896 24.25706 2228 ft 121 kts
2026-04-12 09:21 45.08722 24.25818 2387 ft 110 kts
2026-04-12 09:22 45.09436 24.25893 2620 ft 100 kts
2026-04-12 09:22 45.10142 24.25982 2755 ft 102 kts
2026-04-12 09:22 45.10834 24.26095 2960 ft 97 kts
2026-04-12 09:22 45.11512 24.26147 3211 ft 91 kts
2026-04-12 09:23 45.12123 24.26173 3443 ft 89 kts
2026-04-12 09:23 45.12758 24.26197 3534 ft 102 kts 360°
2026-04-12 09:23 45.13445 24.26088 3817 ft 88 kts 347°
2026-04-12 09:23 45.14030 24.25931 4060 ft 86 kts 347°
2026-04-12 09:24 45.14595 24.25769 4297 ft 83 kts 350°
2026-04-12 09:24 45.15173 24.25698 4430 ft 93 kts 353°
2026-04-12 09:24 45.15849 24.25590 4595 ft 100 kts 353°
2026-04-12 09:24 45.16534 24.25441 4822 ft 98 kts 347°
2026-04-12 09:25 45.17231 24.25250 4968 ft 103 kts 346°
2026-04-12 09:25 45.17938 24.25007 5062 ft 109 kts 347°
2026-04-12 09:25 45.18690 24.24827 5132 ft 116 kts 349°
2026-04-12 09:25 45.19508 24.24631 5156 ft 120 kts 349°
2026-04-12 09:26 45.20294 24.24460 5333 ft 111 kts 353°
2026-04-12 09:26 45.21093 24.24345 5402 ft 116 kts 353°
2026-04-12 09:26 45.21913 24.24215 5432 ft 121 kts 351°
2026-04-12 09:26 45.22766 24.24039 5456 ft 123 kts 351°
2026-04-12 09:27 45.23601 24.23885 5541 ft 121 kts 353°
2026-04-12 09:27 45.24451 24.23756 5560 ft 124 kts 354°
2026-04-12 09:27 45.25308 24.23702 5595 ft 124 kts 357°
2026-04-12 09:27 45.26165 24.23656 5672 ft 122 kts 356°
2026-04-12 09:28 45.27015 24.23621 5682 ft 124 kts 356°
2026-04-12 09:28 45.27803 24.23229 5661 ft 126 kts 314°
2026-04-12 09:28 45.28428 24.22407 5594 ft 126 kts 348°
2026-04-12 09:28 45.29289 24.22232 5634 ft 125 kts 352°
2026-04-12 09:29 45.30151 24.22087 5601 ft 129 kts 354°
2026-04-12 09:29 45.31025 24.22006 5695 ft 122 kts 358°
2026-04-12 09:29 45.31876 24.21976 5693 ft 124 kts 358°
2026-04-12 09:29 45.32742 24.21945 5732 ft 123 kts 359°
2026-04-12 09:30 45.33586 24.21866 5792 ft 122 kts 353°
2026-04-12 09:30 45.34451 24.21689 5775 ft 124 kts 349°
2026-04-12 09:30 45.35282 24.21498 5838 ft 125 kts 352°
2026-04-12 09:30 45.36171 24.21404 5764 ft 129 kts
2026-04-12 09:31 45.37086 24.21557 5593 ft 138 kts
2026-04-12 09:31 45.38035 24.21672 5518 ft 135 kts
2026-04-12 09:31 45.39007 24.21737 5269 ft 143 kts
2026-04-12 09:31 45.39947 24.21795 5333 ft 128 kts
2026-04-12 09:32 45.40809 24.22001 5291 ft 124 kts 27°
2026-04-12 09:32 45.41444 24.22868 5104 ft 132 kts 49°
2026-04-12 09:32 45.42044 24.23847 5022 ft 130 kts 49°
2026-04-12 09:32 45.42651 24.24813 4900 ft 132 kts 47°
2026-04-12 09:33 45.43271 24.25751 4815 ft 130 kts 47°
2026-04-12 09:33 45.43931 24.26651 4689 ft 132 kts 40°
2026-04-12 09:33 45.44630 24.27481 4493 ft 136 kts 35°
2026-04-12 09:33 45.45489 24.28112 4222 ft 138 kts 23°
2026-04-12 09:34 45.46388 24.28607 3922 ft 141 kts 20°
2026-04-12 09:34 45.47315 24.29024 3724 ft 139 kts 17°
2026-04-12 09:34 45.48252 24.29275 3557 ft 137 kts
2026-04-12 09:34 45.49190 24.29096 3388 ft 137 kts 347°
2026-04-12 09:35 45.50101 24.28725 3244 ft 135 kts 343°
2026-04-12 09:35 45.51005 24.28326 3096 ft 136 kts 343°
2026-04-12 09:35 45.51915 24.27924 2941 ft 137 kts 343°
2026-04-12 09:35 45.52759 24.27542 3019 ft 123 kts 342°
2026-04-12 09:36 45.53572 24.27162 3018 ft 120 kts 342°
2026-04-12 09:36 45.54093 24.26917 3048 ft 118 kts 342°
2026-04-12 09:36 45.54870 24.26556 3071 ft 116 kts 343°
2026-04-12 09:36 45.55650 24.26183 3134 ft 118 kts 342°
2026-04-12 09:37 45.56411 24.25833 3323 ft 110 kts 347°
2026-04-12 09:37 45.57187 24.25613 3340 ft 121 kts 352°
2026-04-12 09:37 45.58028 24.25503 3372 ft 122 kts 359°
2026-04-12 09:37 45.58908 24.25620 3290 ft 129 kts 11°
2026-04-12 09:38 45.59782 24.25871 3256 ft 128 kts 12°
2026-04-12 09:38 45.60649 24.26143 3230 ft 125 kts 14°
2026-04-12 09:38 45.61491 24.26434 3181 ft 124 kts 15°
2026-04-12 09:38 45.62328 24.26729 3165 ft 123 kts 14°
2026-04-12 09:39 45.63170 24.27036 3030 ft 127 kts 18°
2026-04-12 09:39 45.64026 24.27430 2893 ft 131 kts 18°
2026-04-12 09:39 45.64887 24.27841 2736 ft 130 kts 19°
2026-04-12 09:39 45.65720 24.28287 2658 ft 127 kts 24°
2026-04-12 09:40 45.66531 24.28784 2580 ft 126 kts 24°
2026-04-12 09:40 45.67364 24.29216 2409 ft 129 kts 17°
2026-04-12 09:40 45.68219 24.29595 2303 ft 128 kts 19°
2026-04-12 09:40 45.69069 24.30014 2211 ft 128 kts 21°
2026-04-12 09:41 45.69892 24.30440 2105 ft 128 kts 18°
2026-04-12 09:41 45.70893 24.30928 2033 ft 126 kts 19°
2026-04-12 09:41 45.71692 24.31347 2026 ft 121 kts 21°
2026-04-12 09:41 45.72452 24.31782 2061 ft 116 kts 22°
2026-04-12 09:42 45.73175 24.32209 2206 ft 102 kts 20°
2026-04-12 09:42 45.73836 24.32461 2337 ft 101 kts 14°
2026-04-12 09:42 45.74551 24.32727 2445 ft 108 kts 13°
2026-04-12 09:43 45.76768 24.33879 2780 ft 116 kts 22°
2026-04-12 09:43 45.77524 24.34307 2815 ft 121 kts 22°
2026-04-12 09:43 45.78327 24.34721 2757 ft 122 kts 17°
2026-04-12 09:44 45.79141 24.34946 2830 ft 119 kts
2026-04-12 09:44 45.79975 24.35025 2777 ft 120 kts
2026-04-12 09:44 45.80810 24.34968 2762 ft 121 kts 354°
2026-04-12 09:44 45.81637 24.34843 2774 ft 120 kts 356°
2026-04-12 09:45 45.82509 24.34781 2650 ft 123 kts 355°
2026-04-12 09:45 45.83337 24.34653 2689 ft 119 kts 353°
2026-04-12 09:45 45.83877 24.34546 2688 ft 119 kts 352°
2026-04-12 09:45 45.84941 24.34338 2677 ft 118 kts 353°
2026-04-12 09:46 45.85764 24.34206 2664 ft 119 kts 354°
2026-04-12 09:46 45.86585 24.34088 2645 ft 120 kts 354°
2026-04-12 09:46 45.87402 24.33923 2693 ft 119 kts 351°
2026-04-12 09:46 45.88226 24.33731 2667 ft 121 kts 350°
2026-04-12 09:47 45.89041 24.33561 2804 ft 109 kts 355°
2026-04-12 09:47 45.89776 24.33490 2932 ft 107 kts 357°
2026-04-12 09:47 45.90528 24.33477 3064 ft 111 kts 359°
2026-04-12 09:47 45.91308 24.33486 3195 ft 112 kts
2026-04-12 09:48 45.92083 24.33485 3302 ft 113 kts 359°
2026-04-12 09:48 45.92894 24.33511 3396 ft 116 kts
2026-04-12 09:48 45.93675 24.33581 3621 ft 109 kts 355°
2026-04-12 09:48 45.93646 24.32940 3734 ft 107 kts 195°